Theta_e
299 299 299 299 299 298 298 298 298 298 298 298 298 299 299 301 302 305 310 313 314 313 309 313 318 315 321 322 321 320 322 322 321 321 322 323 324 322 323 324 326 328 331 335 348
298 299 298 298 298 298 298 298 298 298 298 298 298 298 298 298 301 308 309 309 311 311 309 312 316 317 318 321 323 323 323 324 324 324 323 324 323 321 321 321 322 323 325 332 340
298 298 298 298 298 298 298 298 298 298 298 298 297 297 298 298 309 313 314 312 311 310 311 312 315 318 319 318 322 323 324 325 325 325 324 324 322 320 322 322 321 322 324 326 332
298 298 298 298 298 298 298 298 298 298 298 298 298 298 298 306 314 317 312 314 316 316 315 313 315 318 321 321 320 324 322 322 323 324 323 324 322 322 321 321 321 321 321 322 329
298 298 298 299 299 299 298 298 298 298 298 300 301 302 305 308 308 310 311 310 311 318 318 316 316 317 321 322 321 323 323 322 321 321 323 322 322 322 322 320 320 320 321 322 322
299 298 298 298 298 298 298 299 299 300 301 302 303 307 307 309 307 308 312 314 317 316 319 318 318 319 319 322 321 321 322 322 321 321 321 322 322 321 322 321 320 320 320 320 321
299 298 298 298 298 298 298 299 301 302 302 303 303 306 307 308 307 308 309 309 310 314 317 319 318 317 318 321 320 320 321 322 322 321 321 320 321 322 321 321 320 320 319 319 319
298 297 297 297 297 297 298 300 301 303 303 302 301 307 307 304 307 307 308 309 311 313 314 318 319 318 317 318 319 320 320 321 321 321 321 320 321 322 320 321 321 320 320 320 319
297 297 297 297 297 297 299 301 304 305 307 305 308 307 309 310 310 309 308 308 309 310 312 317 318 319 320 321 321 321 322 321 322 322 321 321 321 322 321 321 321 321 321 320 319
296 296 297 297 297 298 300 304 307 306 311 311 311 309 309 309 310 311 313 312 311 312 310 311 317 321 321 323 325 322 323 323 324 323 322 322 321 323 321 321 321 321 321 321 320
296 296 297 298 298 299 304 309 307 309 311 308 306 308 308 308 309 308 312 314 312 313 315 312 314 318 319 321 322 322 324 324 323 324 324 323 323 322 322 321 322 322 322 322 322
297 297 298 299 299 305 307 308 306 306 308 306 307 308 309 309 309 306 308 311 313 315 314 315 315 315 317 319 321 322 322 324 324 324 324 324 323 323 323 323 321 321 322 322 322
297 298 299 300 303 308 306 308 306 306 308 308 310 311 311 311 310 307 307 309 314 315 314 314 315 315 315 317 320 321 322 323 324 323 323 323 323 324 323 323 321 321 321 322 322
298 299 299 300 305 306 307 306 307 307 310 312 311 311 313 311 311 310 312 308 313 314 315 317 316 315 316 316 317 320 321 322 323 324 325 322 323 324 324 324 324 322 321 322 322
299 299 300 305 306 307 305 306 307 307 315 310 310 310 310 310 311 312 312 311 312 314 313 315 317 315 317 317 316 317 319 320 321 323 323 324 323 324 325 325 324 324 322 322 322
299 299 301 305 306 305 305 306 308 313 313 310 309 311 312 312 313 312 312 312 312 315 314 315 314 317 315 316 317 318 319 321 321 322 322 323 323 324 326 326 325 325 322 322 322
299 300 304 305 305 305 306 309 314 311 309 310 310 310 311 313 313 315 315 316 318 320 317 318 318 317 318 314 316 318 321 325 324 324 324 322 324 324 325 326 326 325 323 322 322
299 304 306 305 305 305 308 312 309 309 309 309 310 311 314 312 312 313 315 316 317 317 317 320 321 317 318 318 316 318 322 324 328 324 323 322 323 324 325 326 325 325 323 322 322
302 307 307 304 305 308 309 311 310 309 308 309 311 311 311 311 312 314 315 317 317 316 319 320 320 318 318 318 317 318 323 322 322 322 323 322 324 324 324 326 328 329 325 323 322
306 307 307 305 306 308 310 307 308 307 307 309 312 310 313 312 314 314 315 314 317 314 315 319 322 319 319 318 318 317 320 323 322 324 323 322 324 325 325 326 327 328 333 334 327
307 308 306 306 307 307 312 309 307 307 307 309 311 312 312 312 312 312 314 314 313 312 312 314 319 319 320 319 319 318 319 320 322 324 325 324 324 325 327 327 330 338 333 332 334
307 310 306 306 308 307 309 307 306 308 308 308 310 311 311 312 313 311 314 313 311 310 311 311 318 321 321 320 320 319 321 320 323 327 325 324 336 334 328 330 334 329 327 328 331
306 308 307 307 310 308 307 307 307 308 309 309 309 309 309 313 311 311 310 311 310 311 309 312 319 325 323 322 322 322 322 322 323 327 327 327 337 333 333 329 325 324 324 327 329
305 309 306 307 306 305 307 308 309 307 308 308 309 310 311 310 309 311 310 311 309 310 311 312 314 324 325 323 323 324 322 321 324 326 327 328 336 334 328 326 324 323 323 324 326
305 306 304 307 307 307 309 308 309 308 308 309 311 310 309 310 309 313 311 310 309 311 312 309 316 319 322 323 320 322 323 321 323 325 326 333 334 333 328 325 322 321 322 323 323
303 302 302 303 306 309 310 309 309 310 309 311 310 309 308 310 311 310 309 309 309 312 311 310 313 317 325 323 320 321 321 322 321 324 324 329 333 328 324 322 322 322 322 322 321
303 303 301 303 308 310 309 307 309 309 309 308 309 310 311 310 309 309 309 308 308 309 309 312 315 322 325 321 321 325 321 322 322 323 324 330 329 324 324 323 323 322 322 321 321
Wind_Speed
22 22 23 23 24 24 23 23 23 23 23 22 21 21 21 23 26 27 36 32 22 18 23 12 12 21 22 26 28 24 18 22 29 27 21 25 16 19 20 23 26 26 21 5 9
22 22 22 22 22 22 23 23 23 25 26 27 27 26 24 24 29 37 35 35 33 34 21 20 23 22 30 25 31 22 18 31 24 22 19 21 20 16 18 21 21 17 23 11 10
23 23 23 23 23 23 23 23 23 24 26 26 26 26 26 21 28 8 10 8 22 30 27 24 23 26 31 28 34 31 29 21 25 27 25 19 17 20 17 16 22 23 22 15 16
25 25 25 25 25 25 26 26 26 26 26 28 28 26 23 13 9 4 9 6 4 16 21 25 30 32 26 30 34 31 32 32 33 23 20 19 18 20 21 21 19 19 25 23 16
25 25 25 26 26 27 29 29 30 30 29 28 27 23 17 19 38 25 28 23 14 11 20 27 33 35 30 27 32 32 30 30 28 33 27 22 21 23 24 23 23 12 19 13 17
26 26 27 28 28 28 29 29 27 25 26 28 27 18 18 29 25 20 23 19 17 17 21 25 21 34 28 32 29 32 29 30 34 25 29 23 21 24 25 21 23 23 20 21 23
29 31 32 33 34 35 34 32 26 26 27 28 28 19 25 42 18 21 19 21 24 26 27 28 28 20 31 22 35 35 25 25 28 32 23 23 27 30 26 22 23 21 22 24 28
31 31 32 34 35 36 33 28 30 30 21 21 22 14 20 25 19 33 33 25 18 20 27 26 26 31 27 22 25 19 29 25 27 23 28 23 29 26 31 28 26 24 29 30 27
31 32 34 36 36 36 31 28 22 19 17 9 3 11 15 9 13 17 25 29 30 24 16 16 21 27 28 22 20 25 24 32 25 27 22 29 25 25 19 32 34 29 28 27 29
34 35 36 38 37 32 28 24 17 21 7 5 7 7 21 15 8 5 8 15 21 19 31 27 16 19 21 22 28 34 30 23 25 26 27 27 28 23 23 21 27 34 35 31 30
35 36 38 39 34 27 26 22 26 9 9 27 33 29 37 33 38 23 15 11 19 17 21 31 18 24 36 35 30 26 26 26 25 21 27 25 23 25 22 17 21 27 32 33 32
36 37 40 38 28 15 19 16 15 13 21 36 27 28 21 18 25 24 19 13 20 22 22 21 27 33 28 29 30 29 29 25 21 24 16 19 21 24 25 22 24 26 26 29 29
37 36 39 35 15 15 17 12 16 14 9 22 7 3 4 5 11 11 19 20 22 21 23 27 25 28 28 28 27 31 28 27 18 14 16 17 21 23 24 25 26 24 27 27 27
38 38 37 30 10 19 14 18 16 12 6 8 6 8 3 14 4 7 12 26 18 23 24 20 25 25 29 29 30 27 29 25 24 15 18 19 16 21 21 25 24 29 26 27 30
38 39 28 17 16 16 22 20 17 7 4 15 12 4 24 20 30 11 17 20 20 20 17 23 26 24 20 26 28 30 22 25 26 20 17 24 16 20 28 27 28 26 33 31 28
40 34 18 16 16 19 23 20 8 5 4 8 26 23 27 28 20 10 23 21 24 16 14 20 24 13 21 23 23 24 23 24 26 17 17 19 18 16 18 24 24 25 33 33 31
41 20 19 15 23 24 20 14 6 8 23 20 30 26 20 12 11 11 11 9 16 7 10 26 23 17 20 24 23 24 21 10 14 17 14 24 21 17 22 19 23 22 30 31 31
37 13 13 18 23 20 17 12 10 21 20 25 22 23 10 13 14 16 10 9 17 22 15 3 9 24 19 25 27 28 25 15 17 23 25 26 27 21 15 11 10 18 29 31 31
26 11 10 23 18 14 21 6 10 16 19 21 23 14 17 15 13 12 14 12 8 15 11 5 8 6 22 22 26 28 23 27 17 22 18 23 21 24 14 8 5 3 13 30 30
20 12 11 23 14 12 11 6 10 14 18 19 11 11 19 20 18 22 11 17 8 14 16 7 11 9 15 24 29 24 26 22 16 17 19 23 21 14 21 16 12 15 10 11 12
14 10 16 21 11 15 7 8 11 18 23 10 16 9 13 16 21 22 7 3 16 15 17 7 7 5 13 18 23 16 20 23 21 15 15 17 21 16 21 18 16 17 15 15 18
15 7 17 21 11 12 9 13 14 18 22 9 10 10 11 18 13 12 8 6 13 7 9 4 4 8 18 18 20 17 22 29 14 23 14 12 7 14 22 19 21 17 19 17 20
18 12 11 15 6 10 13 11 12 21 19 8 12 10 18 12 11 12 9 9 18 14 4 4 4 4 3 2 17 28 27 28 22 19 14 13 7 11 23 21 22 20 18 23 28
13 6 10 10 15 13 15 14 17 18 16 16 19 17 15 20 11 13 21 9 23 13 13 4 4 11 6 15 16 8 19 27 25 8 14 2 14 14 16 19 16 20 22 27 29
13 6 6 7 11 16 14 14 22 18 9 18 8 18 23 7 15 4 17 17 14 15 1 1 6 11 20 10 18 16 20 23 20 14 4 19 17 17 18 19 18 25 27 30 30
11 7 10 21 17 15 10 15 19 25 17 11 10 22 22 11 12 20 15 8 6 8 8 4 4 9 16 16 21 21 22 25 23 21 5 14 22 19 23 27 23 25 29 30 31
11 8 6 14 13 13 12 18 24 21 10 17 19 17 17 14 23 30 28 23 14 9 5 5 5 5 12 16 13 18 22 22 11 17 10 10 17 23 20 17 20 27 29 30 31
Wind_Direction
346 343 341 340 336 334 332 329 326 322 317 314 310 303 296 291 288 288 271 263 259 252 233 231 224 213 217 227 222 223 243 239 238 240 245 250 246 229 241 247 243 241 233 201 141
345 342 339 337 334 330 326 324 321 318 317 316 316 313 308 308 304 287 279 261 244 243 224 223 220 209 215 223 223 223 229 236 239 242 245 243 238 216 233 227 237 222 228 182 178
344 342 339 337 332 327 323 319 316 312 310 307 305 304 307 318 306 277 284 256 240 239 233 229 224 219 220 220 220 221 235 236 241 251 256 265 229 207 206 223 214 222 211 196 206
343 340 337 334 331 327 325 323 317 312 307 303 300 299 296 298 273 278 297 295 233 221 213 212 218 225 225 222 223 227 233 244 264 253 235 260 252 240 225 242 238 217 217 223 200
341 339 336 334 331 330 326 321 315 311 306 302 296 291 294 257 252 272 280 266 266 204 206 209 213 219 224 233 225 230 235 240 246 254 258 232 241 244 243 228 240 228 217 207 209
344 340 337 334 333 331 325 320 315 308 303 296 291 280 261 260 269 270 252 247 240 231 221 214 219 221 236 230 229 233 237 242 245 250 237 248 242 239 238 231 226 228 215 221 224
344 342 339 336 335 332 329 328 325 316 305 290 283 261 250 245 260 270 255 244 243 233 230 225 225 217 227 240 236 252 247 238 235 237 234 247 247 237 233 220 219 216 221 223 223
345 340 336 333 334 329 327 324 324 313 308 293 281 237 253 276 266 256 247 252 236 228 234 231 228 242 239 231 246 236 239 239 227 226 237 223 247 229 229 223 211 223 225 223 225
343 339 336 332 332 328 326 326 325 313 315 308 254 209 263 312 256 259 239 239 233 236 238 231 235 238 235 237 236 228 231 226 239 220 217 219 240 252 203 218 219 216 223 211 213
342 340 335 331 331 328 326 336 331 298 300 236 242 212 253 287 289 253 240 230 227 234 227 222 226 223 226 215 221 215 223 240 232 228 201 225 232 253 209 204 209 218 221 221 218
342 339 334 331 333 332 341 341 349 268 253 285 285 254 274 283 276 272 246 230 220 232 215 210 222 217 217 221 231 240 228 231 227 229 224 212 238 220 240 198 219 212 217 223 221
341 339 333 335 336 350 349 337 348 312 300 301 272 258 272 287 269 260 236 222 211 235 209 212 219 228 229 225 231 240 242 246 233 218 225 207 232 242 218 221 213 215 213 210 213
341 339 335 339 345 349 330 342 329 317 288 301 245 264 264 38 315 268 242 221 227 227 224 224 215 229 233 233 226 225 228 233 236 194 212 230 237 228 233 216 210 216 211 213 203
342 338 338 339 327 333 338 332 329 324 281 284 118 335 24 338 239 195 285 230 248 250 219 230 255 229 212 228 222 229 218 239 238 228 213 202 237 223 221 222 218 210 209 203 208
343 339 340 349 332 333 328 324 318 307 272 315 7 26 323 300 310 197 214 221 225 239 256 224 225 240 213 211 222 230 229 215 235 232 231 202 219 248 199 216 210 210 211 210 199
344 341 352 352 329 321 323 318 305 243 337 4 353 340 343 351 340 343 206 223 220 212 234 277 282 302 261 243 205 220 221 216 226 213 225 233 198 225 195 213 213 199 207 206 204
345 350 6 357 332 325 322 314 283 4 354 353 335 335 328 343 302 325 303 229 239 213 192 232 212 231 243 229 218 210 200 193 208 216 221 215 227 232 210 185 206 195 195 202 199
347 4 359 334 332 326 325 305 339 3 357 331 330 317 11 0 321 332 295 258 225 254 269 228 226 219 203 227 205 196 200 200 189 196 212 223 215 208 242 151 172 184 187 196 194
353 354 341 342 342 339 312 21 5 348 335 331 321 344 351 349 331 334 319 297 226 236 243 290 236 183 234 204 229 187 206 210 215 200 216 209 215 217 170 140 146 234 181 185 188
354 336 342 346 336 328 19 349 343 342 327 327 327 339 333 338 338 340 1 360 13 19 1 307 292 220 193 195 218 207 196 215 236 211 204 199 198 186 184 164 174 183 103 71 160
352 314 350 351 324 339 24 352 333 328 331 321 311 308 313 332 326 331 334 43 10 355 352 299 272 294 242 207 202 188 199 212 224 229 207 203 192 175 182 166 163 110 95 86 92
346 343 344 0 26 356 7 337 314 331 333 323 303 304 301 323 318 321 320 330 351 358 312 240 299 231 231 198 198 208 207 207 214 218 255 207 103 346 172 133 107 103 98 98 100
344 319 354 2 16 357 339 321 343 336 335 318 313 307 315 319 321 309 322 312 315 356 312 328 252 176 253 240 215 200 187 215 210 233 228 207 130 67 94 103 100 101 107 111 110
341 343 348 329 0 340 336 327 335 348 325 325 304 301 327 329 314 290 298 304 324 297 283 321 267 269 236 175 194 156 214 201 204 221 235 132 145 120 111 100 106 117 113 110 112
14 10 3 314 335 312 330 321 338 339 313 319 305 340 327 303 308 270 318 320 305 279 193 214 270 257 249 261 184 189 187 216 170 221 276 136 148 138 125 115 125 121 119 114 114
3 351 320 298 301 293 344 344 331 332 336 316 318 316 311 291 282 294 303 306 282 304 347 210 256 251 245 220 171 198 201 203 194 209 210 214 134 125 112 116 124 123 118 114 114
352 337 303 297 325 326 351 326 322 335 315 332 312 312 307 311 300 283 277 266 249 273 308 282 319 360 133 131 144 194 196 215 114 238 296 162 115 124 119 122 122 124 118 117 116